Overview Statistics Trail Chart Weather Telemetry Raw packets
 

This is the latest recevied weather packets stored in our database for station/object NI4CE-11. If no packets are shown the sender has not sent any weather packets the latest 10 day(s).

<< 154 155 156 157 158 159 160 >>
Time Temp. Humidity Pressure Rain* Wind** Luminosity Snow
1787730268 23.89° C 100% 1016.6 hPa 0 mm - - -
1787729968 24.44° C 100% 1016.6 hPa 0 mm - - -
1787729793 25.56° C 100% 1016.6 hPa 0 mm - - -
1787729668 25.56° C 100% 1016.6 hPa 0 mm - - -
1787729451 25.56° C 100% 1016.7 hPa 0 mm - - -
1787729368 25.56° C 100% 1016.7 hPa 0 mm - - -
1787729068 25.56° C 100% 1016.6 hPa 0 mm - - -
1787728860 25.56° C 100% 1016.6 hPa 0 mm - - -
1787728768 25.56° C 100% 1016.6 hPa 0 mm - - -
1787728591 27.22° C 100% 1016.8 hPa 0 mm - - -
1787728468 27.22° C 100% 1016.8 hPa 0 mm - - -
1787728168 26.67° C 100% 1016.8 hPa 0 mm - - -
1787727868 26.67° C 100% 1016.7 hPa 0 mm - - -
1787727568 26.67° C 100% 1016.8 hPa 0 mm - - -
1787727268 26.11° C 100% 1016.8 hPa 0 mm - - -
1787727115 26.11° C 100% 1016.8 hPa 0 mm - - -
1787726968 26.11° C 100% 1016.8 hPa 0 mm - - -
1787726668 26.67° C 100% 1016.8 hPa 0 mm - - -
1787726468 26.67° C 100% 1016.9 hPa 0 mm - - -
1787726368 26.67° C 100% 1016.9 hPa 0 mm - - -
1787726160 26.67° C 100% 1016.9 hPa 0 mm - - -
1787726068 26.67° C 100% 1016.9 hPa 0 mm - - -
1787725768 25° C 100% 1017 hPa 0 mm - - -
1787725592 26.67° C 100% 1016.9 hPa 0 mm - - -
1787725468 26.67° C 100% 1016.9 hPa 0 mm - - -

* Rain latest hour (hover to see other rain measurements)
** Current wind speed in m/s (hover to see current wind gust speed)